Regional Weather Roundup
Issued by NWS New Orleans/Baton Rouge, LA

Home | Current Version | Previous Version | Text Only | Print | Product List | Glossary On
Versions: 1 2 3 4 5 6 7 8 9 10 11 12 13 14 15 16 17 18 19 20 21 22 23 24 25 26 27 28 29 30 31 32 33 34 35 36 37 38 39 40 41 42 43 44 45 46 47 48 49 50
000
ASUS44 KLIX 200011
RWRLIX
NEW ORLEANS REGIONAL WEATHER ROUNDUP
NATIONAL WEATHER SERVICE NEW ORLEANS LA
700 PM CDT SUN APR 19 2015

NOTE: "FAIR" INDICATES FEW OR NO CLOUDS BELOW 12,000 FEET WITH NO
      SIGNIFICANT WEATHER AND/OR OBSTRUCTIONS TO VISIBILITY.
      SKY/WX - SKY CONDITION AND SIGNIFICANT WEATHER.
      TMP - AIR TEMPERATURE.     DP    - DEWPOINT TEMPERATURE.
      RH  - RELATIVE HUMIDITY.   PRES  - PRESSURE.
      HI  - HEAT INDEX.          WCI   - WIND CHILL INDEX.

*  THESE STATIONS ARE NOT NWS OR FAA STATIONS AND ARE NOT UNDER
   NWS QUALITY CONTROL.

LAZ038-040-048-061>063-065>067-069-200100-
SOUTHEAST LOUISIANA

CITY           SKY/WX    TMP DP  RH WIND       PRES   REMARKS
N.O. AUDUBON     N/A     81  65  58 MISG        N/A
6HR MIN TEMP:  80; 6HR MAX TEMP:  89;

N.O. INTL ARPT MOCLDY    78  61  55 SW9       29.76F
6HR MIN TEMP:  78; 6HR MAX TEMP:  85;

N.O. LAKEFRONT PTCLDY    83  63  50 SW13      29.76F
6HR MIN TEMP:  83; 6HR MAX TEMP:  85;

SLIDELL        PTCLDY    81  61  50 CALM      29.75F
6HR MIN TEMP:  81; 6HR MAX TEMP:  84;

BATON ROUGE    PTCLDY    79  64  60 S16       29.74F
6HR MIN TEMP:  79; 6HR MAX TEMP:  84;

BOOTHVILLE     MOCLDY    77  68  73 SW9       29.80S
6HR MIN TEMP:  77; 6HR MAX TEMP:  80;

BELLE CHASSE   MOCLDY    77  63  61 SW5       29.76F
6HR MIN TEMP:  77; 6HR MAX TEMP:  85;

BOGALUSA*        N/A     82  56  40 SW7       29.77S
6HR MIN TEMP:  82; 6HR MAX TEMP:  86;

GALLIANO*      CLOUDY    77  68  72 S9        29.79S
6HR MIN TEMP:  77; 6HR MAX TEMP:  83;

NEW ROADS*       N/A     78  66  66 S8        29.74S
6HR MIN TEMP:  78; 6HR MAX TEMP:  83;

GONZALES*        N/A     78  63  59 S6        29.75F
6HR MIN TEMP:  78; 6HR MAX TEMP:  84;

HAMMOND*       CLEAR     82  59  44 SW7       29.76F
HOUMA*         MOCLDY    79  61  53 SW3       29.78F
PORT FOURCHON* CLEAR     77  68  73 SW6       29.83S

$$

MSZ070-080>082-200100-
SOUTHERN MISSISSIPPI

CITY           SKY/WX    TMP DP  RH WIND       PRES   REMARKS
MCCOMB         CLEAR     76  63  64 S5        29.74F
6HR MIN TEMP:  76; 6HR MAX TEMP:  82;

GULFPORT       CLEAR     80  59  48 SW3       29.76R
6HR MIN TEMP:  78; 6HR MAX TEMP:  83;

BILOXI         CLEAR     80  59  49 W6        29.75F
6HR MIN TEMP:  79; 6HR MAX TEMP:  82;

PASCAGOULA     CLEAR     75  69  81 SW5       29.77S
6HR MIN TEMP:  75; 6HR MAX TEMP:  80;

STENNIS ARPT*  CLEAR     79  55  44 MISG      29.76F

$$

COASTAL OBSERVATIONS
LAKE AND NEARSHORE STATIONS

STATION/POSITION TIME  TEMP    WIND        PRES    WAVE
                       AIR SEA DIR/SP/G            HT/PER
                 (UTC) (F)     (DEG/KT/KT) (MB)    (FT/S)
PASCAGOULA       2300   77     220/ 14/ 18 1007.9
WAVELAND YACHT   2300   82 76  260/  7/ 11 1007.9
GRAND ISLE       2300   78 78  250/  8/  9 1008.9
SOUTHWEST PASS   2300   73 64  230/  7/  9 1009.9
NEW CANAL        2300   83     230/  6/  9 1008.3
SHELL BEACH      2300   80 77  220/ 13/ 16 1007.8

OFFSHORE STATIONS

STATION/POSITION TIME  TEMP    WIND        PRES    WAVE
                       AIR SEA DIR/SP/G            HT/PER
                 (UTC) (F)     (DEG/KT/KT) (MB)    (FT/S)
64 S DAUPHIN ISL 2350   75 75  220/  8/  8 1009.7    6/ 8

$$




USA.gov is the U.S. government's official web portal to all federal, state and local government web resources and services.